Location: Eppenbrunn
(49.1158°N, 7.5601°E)
Time: 13:46:49
(UTC+00:00)

Cosmos 2233 Rocket - Visible Passes

Search period start: 06 August 2020 00:00
Search period end: 16 August 2020 00:00
Orbit: 954 x 990 km, 82.9° (Epoch: 05 August)

Date Brightness Start Highest point End Pass type
(mag) Time Alt. Az. Time Alt. Az. Time Alt. Az.
06 Aug 6.1 01:32:14 10° W 01:35:10 13° NW 01:38:06 10° NNW visible
06 Aug 4.6 22:26:11 35° ESE 22:27:41 41° E 22:33:32 10° NNE visible
07 Aug 4.9 00:10:46 30° WSW 00:13:00 40° WNW 00:18:56 10° N visible
07 Aug 6.0 21:05:46 10° E 21:07:47 12° ENE 21:09:59 10° NE visible
07 Aug 4.0 22:50:21 51° SSE 22:51:50 67° E 22:58:08 10° NNE visible
08 Aug 5.5 00:34:56 19° W 00:37:44 25° WNW 00:42:52 10° N visible
08 Aug 5.5 21:29:56 19° E 21:31:34 21° E 21:36:03 10° NE visible
08 Aug 4.0 23:14:31 52° SSW 23:16:10 77° W 23:22:33 10° N visible
09 Aug 6.1 00:59:06 10° W 01:02:39 16° WNW 01:06:23 10° NNW visible
09 Aug 4.8 21:54:05 30° ESE 21:55:31 34° E 22:01:07 10° NNE visible
09 Aug 4.6 23:38:40 36° WSW 23:40:39 47° WNW 23:46:46 10° N visible
10 Aug 4.2 22:18:13 46° SE 22:19:38 56° E 22:25:48 10° NNE visible
11 Aug 5.4 00:02:48 23° WSW 00:05:18 30° WNW 00:10:47 10° N visible
11 Aug 5.6 20:57:46 15° E 20:59:30 17° ENE 21:03:21 10° NE visible
11 Aug 3.9 22:42:21 55° S 22:43:53 90° E 22:50:16 10° N visible
12 Aug 5.9 00:26:55 13° W 00:30:08 19° WNW 00:34:30 10° NNW visible
12 Aug 5.0 21:21:53 26° ESE 21:23:23 28° E 21:28:38 10° NNE visible
12 Aug 4.4 23:06:28 42° SW 23:08:18 57° WNW 23:14:34 10° N visible
13 Aug 6.3 00:53:01 10° WNW 00:55:10 12° NW 00:57:21 10° NNW visible
13 Aug 4.4 21:45:58 40° SE 21:47:26 46° E 21:53:26 10° NNE visible
13 Aug 5.1 23:30:34 27° WSW 23:32:54 35° WNW 23:38:40 10° N visible
14 Aug 5.8 20:25:29 12° E 20:27:27 14° ENE 20:30:28 10° NE visible
14 Aug 3.9 22:10:04 53° SSE 22:11:38 76° E 22:17:58 10° NNE visible
14 Aug 5.8 23:54:38 16° W 23:57:40 22° WNW 00:02:31 10° NNW visible
15 Aug 5.2 20:49:34 21° ESE 20:51:16 24° E 20:56:06 10° NNE visible
15 Aug 4.2 22:34:08 46° SW 22:36:00 68° WNW 22:42:20 10° N visible
